Location: Gallinara
(44.0333°N, 8.2333°E)
Time: 06:30:49
(UTC+00:00)

Cosmos 2322 Rocket - Pass Details

Date: 25 September 2020
Orbit: 831 x 852 km, 71.0° (Epoch: 23 October)

Event Time Altitude Azimuth Distance (km) Brightness Sun altitude
Exits shadow 04:35:59 10° 266° (W) 2,461 3.9 -8.4°
Maximum altitude 04:40:06 20° 313° (NW) 1,852 3.6 -7.6°
Drops below altitude 10° 04:44:17 10° 360° (N) 2,488 4.7 -6.9°
Sets 04:47:25 0° 17° (NNE) 3,429 5.7 -6.3°
